| time (UTC) | temp F | wind direction | speed MPH | gust MPH | rain 1hr in | rain 24hr in | rain mn in | humidity % | barometer mb |
| 20260507012041 | 41 | 353 | 2.0 | 4.0 | 0.00 | 0.19 | 0.00 | 97 | 1012.2 |
| 20260507011104 | 41 | 2 | 1.0 | 4.0 | 0.00 | 0.19 | 0.00 | 97 | 1012.0 |
| 20260507010024 | 41 | 250 | 1.0 | 3.0 | 0.00 | 0.19 | 0.00 | 97 | 1011.9 |
| 20260507005047 | 41 | 346 | 3.0 | 8.0 | 0.00 | 0.19 | 0.00 | 97 | 1011.7 |
| 20260507004154 | 41 | 333 | 2.0 | 6.0 | 0.00 | 0.19 | 0.00 | 97 | 1011.7 |
| 20260507003032 | 41 | 318 | 1.0 | 4.0 | 0.00 | 0.19 | 0.00 | 97 | 1011.8 |
| 20260507002056 | 41 | 317 | 2.0 | 5.0 | 0.00 | 0.19 | 0.00 | 97 | 1011.7 |
| 20260507001120 | 41 | 330 | 3.0 | 6.0 | 0.00 | 0.19 | 0.00 | 97 | 1011.6 |
| 20260507000040 | 41 | 308 | 2.0 | 4.0 | 0.00 | 0.19 | 0.00 | 97 | 1011.4 |
| 20260506235104 | 41 | 297 | 1.0 | 8.0 | 0.00 | 0.19 | 0.19 | 97 | 1011.3 |
| 20260506234024 | 41 | 327 | 1.0 | 6.0 | 0.00 | 0.19 | 0.19 | 97 | 1011.5 |
| 20260506233049 | 41 | 339 | 4.0 | 10.0 | 0.00 | 0.19 | 0.19 | 97 | 1011.7 |
| 20260506232112 | 42 | 308 | 2.0 | 6.0 | 0.00 | 0.19 | 0.19 | 97 | 1011.6 |
| 20260506231032 | 42 | 325 | 2.0 | 9.0 | 0.00 | 0.19 | 0.19 | 97 | 1011.8 |
| 20260506230056 | 42 | 338 | 3.0 | 9.0 | 0.00 | 0.19 | 0.19 | 97 | 1011.7 |
| 20260506225120 | 42 | 78 | 2.0 | 5.0 | 0.00 | 0.19 | 0.19 | 97 | 1011.7 |
| 20260506224040 | 42 | 9 | 2.0 | 7.0 | 0.01 | 0.19 | 0.19 | 97 | 1011.9 |
| 20260506223104 | 42 | 344 | 2.0 | 10.0 | 0.01 | 0.19 | 0.19 | 97 | 1011.7 |
| 20260506222104 | 42 | 16 | 3.0 | 9.0 | 0.01 | 0.19 | 0.19 | 97 | 1011.6 |
| 20260506221049 | 42 | 316 | 2.0 | 8.0 | 0.00 | 0.18 | 0.18 | 97 | 1011.4 |
| 20260506220112 | 42 | 9 | 2.0 | 6.0 | 0.00 | 0.18 | 0.18 | 97 | 1011.3 |
| 20260506215033 | 42 | 340 | 1.0 | 6.0 | 0.00 | 0.18 | 0.18 | 97 | 1011.2 |
| 20260506214057 | 42 | 346 | 2.0 | 6.0 | 0.00 | 0.18 | 0.18 | 97 | 1011.2 |
| 20260506213120 | 42 | 356 | 2.0 | 5.0 | 0.00 | 0.18 | 0.18 | 97 | 1011.3 |
| 20260506212040 | 42 | 339 | 3.0 | 8.0 | 0.00 | 0.18 | 0.18 | 96 | 1011.3 |
| 20260506211104 | 42 | 344 | 2.0 | 8.0 | 0.00 | 0.18 | 0.18 | 96 | 1011.3 |
| 20260506210024 | 42 | 343 | 1.0 | 8.0 | 0.00 | 0.18 | 0.18 | 96 | 1011.2 |
| 20260506205109 | 42 | 25 | 2.0 | 5.0 | 0.00 | 0.18 | 0.18 | 96 | 1011.1 |
| 20260506204113 | 42 | 346 | 2.0 | 7.0 | 0.00 | 0.18 | 0.18 | 96 | 1011.0 |
| 20260506203017 | 42 | 35 | 3.0 | 9.0 | 0.00 | 0.18 | 0.18 | 97 | 1010.9 |
| 20260506202042 | 42 | 21 | 2.0 | 6.0 | 0.01 | 0.18 | 0.18 | 96 | 1010.9 |
| 20260506201104 | 42 | 15 | 3.0 | 5.0 | 0.01 | 0.18 | 0.18 | 96 | 1010.7 |
| 20260506200026 | 42 | 15 | 3.0 | 8.0 | 0.01 | 0.18 | 0.18 | 96 | 1010.9 |
| 20260506195052 | 42 | 342 | 1.0 | 7.0 | 0.01 | 0.18 | 0.18 | 96 | 1010.9 |
| 20260506194112 | 42 | 8 | 4.0 | 11.0 | 0.02 | 0.18 | 0.18 | 96 | 1010.8 |
| 20260506193032 | 42 | 353 | 3.0 | 8.0 | 0.02 | 0.18 | 0.18 | 96 | 1011.1 |
| 20260506192050 | 42 | 9 | 3.0 | 7.0 | 0.01 | 0.17 | 0.17 | 96 | 1011.0 |
| 20260506191113 | 42 | 8 | 4.0 | 13.0 | 0.02 | 0.17 | 0.17 | 96 | 1010.9 |
| 20260506190034 | 42 | 325 | 2.0 | 6.0 | 0.02 | 0.17 | 0.17 | 96 | 1010.8 |
| 20260506185041 | 42 | 322 | 1.0 | 7.0 | 0.02 | 0.16 | 0.16 | 96 | 1010.6 |
| 20260506184106 | 42 | 5 | 2.0 | 8.0 | 0.02 | 0.16 | 0.16 | 96 | 1010.7 |
| 20260506183027 | 42 | 31 | 2.0 | 7.0 | 0.02 | 0.16 | 0.16 | 96 | 1010.5 |
| 20260506182049 | 42 | 359 | 2.0 | 7.0 | 0.02 | 0.16 | 0.16 | 96 | 1010.4 |
| 20260506181113 | 42 | 22 | 2.0 | 5.0 | 0.02 | 0.16 | 0.16 | 96 | 1010.3 |
| 20260506180032 | 42 | 2 | 3.0 | 5.0 | 0.02 | 0.15 | 0.15 | 96 | 1010.2 |
| 20260506175056 | 42 | 150 | 3.0 | 13.0 | 0.02 | 0.14 | 0.14 | 96 | 1010.2 |
| 20260506174113 | 42 | 25 | 2.0 | 5.0 | 0.02 | 0.14 | 0.14 | 96 | 1010.2 |
| 20260506173053 | 42 | 347 | 2.0 | 10.0 | 0.01 | 0.14 | 0.14 | 96 | 1010.2 |
| 20260506172057 | 42 | 325 | 2.0 | 8.0 | 0.02 | 0.14 | 0.14 | 96 | 1010.2 |
| 20260506171121 | 42 | 358 | 2.0 | 7.0 | 0.02 | 0.13 | 0.13 | 95 | 1010.1 |
| 20260506170032 | 42 | 17 | 2.0 | 9.0 | 0.02 | 0.13 | 0.13 | 95 | 1010.2 |
| 20260506165054 | 42 | 25 | 2.0 | 9.0 | 0.02 | 0.13 | 0.13 | 95 | 1010.0 |
| 20260506164135 | 43 | 4 | 2.0 | 8.0 | 0.02 | 0.13 | 0.13 | 95 | 1010.0 |
| 20260506163036 | 42 | 324 | 2.0 | 7.0 | 0.02 | 0.13 | 0.13 | 95 | 1009.9 |
| 20260506162058 | 42 | 211 | 2.0 | 12.0 | 0.02 | 0.12 | 0.12 | 95 | 1009.9 |
| 20260506161122 | 42 | 291 | 3.0 | 6.0 | 0.02 | 0.11 | 0.11 | 95 | 1010.1 |
| 20260506160044 | 42 | 22 | 2.0 | 7.0 | 0.02 | 0.11 | 0.11 | 95 | 1010.1 |
| 20260506155100 | 42 | 1 | 2.0 | 6.0 | 0.02 | 0.11 | 0.11 | 95 | 1010.0 |
| 20260506154124 | 43 | 338 | 3.0 | 6.0 | 0.02 | 0.11 | 0.11 | 95 | 1010.1 |
| 20260506153044 | 43 | 31 | 2.0 | 13.0 | 0.02 | 0.10 | 0.10 | 94 | 1010.1 |
| 20260506152118 | 42 | 322 | 1.0 | 5.0 | 0.02 | 0.10 | 0.10 | 94 | 1010.0 |
| 20260506151120 | 43 | 344 | 2.0 | 5.0 | 0.02 | 0.10 | 0.09 | 94 | 1009.9 |
| 20260506150040 | 43 | 339 | 2.0 | 10.0 | 0.01 | 0.09 | 0.09 | 93 | 1010.0 |
| 20260506145110 | 43 | 21 | 2.0 | 9.0 | 0.01 | 0.09 | 0.09 | 93 | 1010.1 |
| 20260506144106 | 43 | 9 | 4.0 | 14.0 | 0.01 | 0.09 | 0.09 | 93 | 1010.1 |
| 20260506143026 | 43 | 346 | 2.0 | 11.0 | 0.01 | 0.09 | 0.09 | 92 | 1010.2 |
| 20260506142109 | 43 | 27 | 3.0 | 10.0 | 0.00 | 0.09 | 0.08 | 92 | 1010.2 |
| 20260506141114 | 43 | 324 | 3.0 | 6.0 | 0.00 | 0.08 | 0.08 | 92 | 1010.2 |
| 20260506140143 | 43 | 7 | 2.0 | 11.0 | 0.00 | 0.08 | 0.08 | 91 | 1010.1 |
| 20260506135040 | 44 | 219 | 2.0 | 7.0 | 0.00 | 0.08 | 0.08 | 91 | 1010.0 |
| 20260506134104 | 44 | 341 | 3.0 | 9.0 | 0.00 | 0.08 | 0.08 | 90 | 1009.8 |
| 20260506133044 | 44 | 26 | 3.0 | 9.0 | 0.00 | 0.08 | 0.08 | 88 | 1009.8 |
| 20260506132112 | 44 | 181 | 3.0 | 10.0 | 0.00 | 0.08 | 0.08 | 88 | 1009.8 |
| 20260506131112 | 44 | 21 | 2.0 | 10.0 | 0.00 | 0.08 | 0.08 | 88 | 1009.6 |
| 20260506130033 | 43 | 351 | 4.0 | 11.0 | 0.00 | 0.08 | 0.08 | 89 | 1009.7 |
| 20260506125118 | 43 | 16 | 4.0 | 11.0 | 0.00 | 0.08 | 0.08 | 90 | 1009.7 |
| 20260506124159 | 43 | 40 | 3.0 | 8.0 | 0.00 | 0.08 | 0.08 | 92 | 1009.7 |
| 20260506123040 | 42 | 140 | 3.0 | 10.0 | 0.00 | 0.08 | 0.08 | 93 | 1009.8 |
| 20260506122104 | 42 | 41 | 2.0 | 12.0 | 0.00 | 0.08 | 0.08 | 93 | 1009.8 |
| 20260506121024 | 42 | 316 | 3.0 | 11.0 | 0.00 | 0.08 | 0.08 | 93 | 1009.8 |
| 20260506120050 | 42 | 226 | 4.0 | 9.0 | 0.00 | 0.08 | 0.08 | 94 | 1009.8 |
| 20260506115113 | 42 | 213 | 3.0 | 6.0 | 0.00 | 0.08 | 0.08 | 94 | 1009.8 |
| 20260506114034 | 42 | 351 | 4.0 | 10.0 | 0.00 | 0.08 | 0.08 | 95 | 1009.8 |
| 20260506113057 | 43 | 9 | 4.0 | 9.0 | 0.01 | 0.08 | 0.08 | 95 | 1010.0 |
| 20260506112105 | 42 | 29 | 3.0 | 10.0 | 0.02 | 0.08 | 0.08 | 95 | 1009.9 |
| 20260506111026 | 43 | 12 | 3.0 | 6.0 | 0.03 | 0.08 | 0.08 | 95 | 1010.0 |
| 20260506110050 | 43 | 260 | 2.0 | 8.0 | 0.04 | 0.08 | 0.08 | 96 | 1009.9 |
| 20260506105114 | 42 | 24 | 2.0 | 11.0 | 0.04 | 0.08 | 0.07 | 96 | 1010.0 |
| 20260506104034 | 42 | 17 | 3.0 | 10.0 | 0.04 | 0.08 | 0.07 | 96 | 1010.2 |
| 20260506103059 | 43 | 8 | 4.0 | 7.0 | 0.04 | 0.07 | 0.07 | 95 | 1010.4 |
| 20260506102113 | 43 | 10 | 3.0 | 9.0 | 0.02 | 0.06 | 0.06 | 95 | 1010.5 |
| 20260506101034 | 43 | 350 | 1.0 | 5.0 | 0.01 | 0.05 | 0.05 | 95 | 1010.5 |
| 20260506100117 | 43 | 27 | 2.0 | 11.0 | 0.00 | 0.04 | 0.04 | 95 | 1010.2 |
| 20260506095120 | 43 | 12 | 2.0 | 8.0 | 0.01 | 0.04 | 0.04 | 95 | 1010.1 |
| 20260506094042 | 44 | 9 | 1.0 | 4.0 | 0.02 | 0.04 | 0.04 | 95 | 1010.2 |
| 20260506093109 | 44 | 135 | 1.0 | 5.0 | 0.02 | 0.04 | 0.04 | 95 | 1010.1 |
| 20260506092113 | 44 | 210 | 3.0 | 6.0 | 0.02 | 0.04 | 0.04 | 95 | 1009.9 |
| 20260506091036 | 43 | 335 | 2.0 | 10.0 | 0.02 | 0.04 | 0.04 | 94 | 1009.9 |
| 20260506090057 | 44 | 170 | 2.0 | 7.0 | 0.02 | 0.04 | 0.03 | 94 | 1009.7 |
| 20260506085113 | 44 | 34 | 3.0 | 58.0 | 0.01 | 0.03 | 0.02 | 94 | 1009.8 |
| 20260506084034 | 44 | 227 | 1.0 | 4.0 | 0.00 | 0.02 | 0.02 | 94 | 1010.1 |
| 20260506083057 | 45 | 320 | 1.0 | 4.0 | 0.01 | 0.02 | 0.02 | 94 | 1009.7 |
| 20260506082140 | 45 | 316 | 1.0 | 5.0 | 0.01 | 0.02 | 0.02 | 94 | 1009.6 |
| 20260506081041 | 45 | 193 | 2.0 | 5.0 | 0.01 | 0.02 | 0.02 | 94 | 1009.6 |
| 20260506080104 | 45 | 249 | 2.0 | 5.0 | 0.01 | 0.02 | 0.01 | 94 | 1009.7 |
| 20260506073113 | 46 | 159 | 3.0 | 13.0 | 0.01 | 0.01 | 0.01 | 94 | 1009.8 |
| 20260506072034 | 46 | 173 | 2.0 | 10.0 | 0.01 | 0.01 | 0.01 | 94 | 1009.9 |
| 20260506071057 | 46 | 95 | 3.0 | 7.0 | 0.01 | 0.01 | 0.01 | 94 | 1010.0 |
| 20260506070141 | 46 | 54 | 2.0 | 5.0 | 0.00 | 0.01 | 0.00 | 94 | 1010.1 |
| 20260506062049 | 46 | 19 | 2.0 | 5.0 | 0.00 | 0.00 | 0.00 | 92 | 1010.4 |
| 20260506061112 | 47 | 165 | 3.0 | 6.0 | 0.00 | 0.00 | 0.00 | 92 | 1010.4 |
| 20260506051106 | 46 | 26 | 3.0 | 5.0 | 0.00 | 0.00 | 0.00 | 91 | 1010.6 |
| 20260506045043 | 45 | 81 | 1.0 | 5.0 | 0.00 | 0.00 | 0.00 | 92 | 1010.8 |
| 20260506044105 | 45 | 194 | 2.0 | 5.0 | 0.00 | 0.00 | 0.00 | 93 | 1010.8 |
| 20260506043122 | 45 | 8 | 2.0 | 4.0 | 0.00 | 0.00 | 0.00 | 93 | 1010.9 |
| 20260506042044 | 44 | 123 | 2.0 | 4.0 | 0.00 | 0.00 | 0.00 | 94 | 1010.9 |
| 20260506041105 | 44 | 49 | 1.0 | 5.0 | 0.00 | 0.00 | 0.00 | 94 | 1010.9 |
| 20260506040024 | 44 | 220 | 1.0 | 4.0 | 0.00 | 0.00 | 0.00 | 95 | 1010.9 |
| 20260506035042 | 44 | 110 | 1.0 | 5.0 | 0.00 | 0.00 | 0.00 | 95 | 1010.9 |
| 20260506034106 | 44 | 231 | 2.0 | 6.0 | 0.00 | 0.00 | 0.00 | 95 | 1010.9 |
| 20260506033025 | 43 | 99 | 2.0 | 6.0 | 0.00 | 0.00 | 0.00 | 95 | 1010.9 |
| 20260506032051 | 43 | 297 | 1.0 | 3.0 | 0.00 | 0.00 | 0.00 | 95 | 1011.0 |
| 20260506031115 | 43 | 347 | 2.0 | 5.0 | 0.00 | 0.00 | 0.00 | 95 | 1011.0 |
| 20260506030052 | 43 | 11 | 2.0 | 4.0 | 0.00 | 0.00 | 0.00 | 95 | 1010.8 |
| 20260506025049 | 42 | 220 | 1.0 | 4.0 | 0.00 | 0.00 | 0.00 | 95 | 1011.0 |
| 20260506024135 | 42 | 76 | 1.0 | 3.0 | 0.00 | 0.00 | 0.00 | 95 | 1011.1 |
| 20260506023035 | 43 | 231 | 2.0 | 4.0 | 0.00 | 0.00 | 0.00 | 95 | 1011.2 |
| 20260506022051 | 43 | 146 | 1.0 | 3.0 | 0.00 | 0.00 | 0.00 | 95 | 1011.3 |
| 20260506021113 | 43 | 345 | 0.0 | 2.0 | 0.00 | 0.00 | 0.00 | 95 | 1011.5 |
| 20260506020037 | 43 | 113 | 1.0 | 3.0 | 0.00 | 0.00 | 0.00 | 95 | 1011.5 |
| 20260506015119 | 43 | 74 | 1.0 | 3.0 | 0.00 | 0.00 | 0.00 | 95 | 1011.5 |
| 20260506014201 | 44 | 16 | 1.0 | 3.0 | 0.00 | 0.00 | 0.00 | 95 | 1011.3 |
| 20260506013044 | 44 | 45 | 0.0 | 3.0 | 0.00 | 0.00 | 0.00 | 95 | 1011.5 |